This is the latest recevied weather packets stored in our database for station/object DH1NAI-6. If no packets are shown the sender has not sent any weather packets the latest 10 day(s).
| Time | Temp. | Humidity | Pressure | Rain* | Wind** | Luminosity | Snow |
|---|---|---|---|---|---|---|---|
| 1787396120 | 13.89° C | 86% | 1015.1 hPa | 0 mm | - | 10 W/m² | - |
| 1787395511 | 13.89° C | 85% | 1014.8 hPa | 0 mm | - | 58 W/m² | - |
| 1787394904 | 13.33° C | 85% | 1014.8 hPa | 0 mm | - | 147 W/m² | - |
| 1787394295 | 13.33° C | 84% | 1014.6 hPa | 0 mm | - | 70 W/m² | - |
| 1787393688 | 13.33° C | 85% | 1014.5 hPa | 0 mm | - | 98 W/m² | - |
| 1787393079 | 13.33° C | 85% | 1014.4 hPa | 0 mm | - | 140 W/m² | - |
| 1787392472 | 12.78° C | 88% | 1014.4 hPa | 0 mm | - | 106 W/m² | - |
| 1787391863 | 12.22° C | 89% | 1014.7 hPa | 0 mm | - | 67 W/m² | - |
| 1787391256 | 12.78° C | 89% | 1014.5 hPa | 0 mm | - | 96 W/m² | - |
| 1787390647 | 12.78° C | 91% | 1014.5 hPa | 0 mm | - | 93 W/m² | - |
| 1787390040 | 12.22° C | 91% | 1014.3 hPa | 0 mm | - | 65 W/m² | - |
| 1787389431 | 12.22° C | 90% | 1014.3 hPa | 0 mm | - | 58 W/m² | - |
| 1787388824 | 11.67° C | 91% | 1013.9 hPa | 0 mm | - | 96 W/m² | - |
| 1787388212 | 11.67° C | 96% | 1013.9 hPa | 0 mm | - | 78 W/m² | - |
| 1787387591 | 11.11° C | 97% | 1013.8 hPa | 0 mm | - | 51 W/m² | - |
| 1787386983 | 11.11° C | 99% | 1013.5 hPa | 0 mm | - | 40 W/m² | - |
| 1787386375 | 11.11° C | 99% | 1013.5 hPa | 0 mm | - | 27 W/m² | - |
| 1787385752 | 11.67° C | 99% | 1013.4 hPa | 0 mm | - | 46 W/m² | - |
| 1787385143 | 11.11° C | 99% | 1013.1 hPa | 1.02 mm | - | 38 W/m² | - |
| 1787384536 | 11.67° C | 99% | 1012.8 hPa | 1.02 mm | - | 30 W/m² | - |
| 1787383927 | 11.67° C | 99% | 1012.6 hPa | 1.02 mm | - | 102 W/m² | - |
| 1787383320 | 11.11° C | 99% | 1012.7 hPa | 1.02 mm | - | 62 W/m² | - |
| 1787382711 | 10.56° C | 99% | 1012.5 hPa | 1.02 mm | - | 37 W/m² | - |
| 1787382104 | 11.67° C | 99% | 1012.3 hPa | 1.02 mm | - | 10 W/m² | - |
| 1787381492 | 11.67° C | 99% | 1012 hPa | 1.02 mm | - | 4 W/m² | - |
* Rain latest hour (hover to see other rain measurements)
** Current wind speed in m/s (hover to see current wind gust speed)